TimeCST,TemperatureF,Dew PointF,Humidity,Sea Level PressureIn,VisibilityMPH,Wind Direction,Wind SpeedMPH,Gust SpeedMPH,PrecipitationIn,Events,Conditions,WindDirDegrees,DateUTC
12:15 AM,45.3,30.7,57,30.28,10.0,SSW,8.1,-,N/A,,Clear,210,2012-11-14 06:15:00
12:35 AM,44.8,30.9,58,30.28,10.0,SSW,9.2,-,N/A,,Clear,200,2012-11-14 06:35:00
12:55 AM,44.1,30.9,60,30.28,10.0,WSW,4.6,-,N/A,,Scattered Clouds,240,2012-11-14 06:55:00
1:15 AM,39.6,31.5,73,30.28,10.0,Calm,Calm,-,N/A,,Scattered Clouds,0,2012-11-14 07:15:00
1:35 AM,39.2,30.9,72,30.28,10.0,Calm,Calm,-,N/A,,Clear,0,2012-11-14 07:35:00
1:55 AM,38.1,30.6,74,30.28,10.0,Calm,Calm,-,N/A,,Clear,0,2012-11-14 07:55:00
2:15 AM,36.3,29.8,77,30.29,10.0,Calm,Calm,-,N/A,,Clear,0,2012-11-14 08:15:00
2:35 AM,36.5,30.0,77,30.29,10.0,Calm,Calm,-,N/A,,Clear,0,2012-11-14 08:35:00
2:55 AM,37.6,29.8,74,30.28,10.0,SSE,3.5,-,N/A,,Clear,160,2012-11-14 08:55:00
3:15 AM,35.4,29.3,78,30.28,10.0,SSE,3.5,-,N/A,,Clear,160,2012-11-14 09:15:00
3:35 AM,32.4,28.8,87,30.28,10.0,Calm,Calm,-,N/A,,Clear,0,2012-11-14 09:35:00
3:55 AM,34.7,29.7,82,30.28,10.0,Calm,Calm,-,N/A,,Clear,0,2012-11-14 09:55:00
4:15 AM,35.4,29.5,79,30.28,10.0,Calm,Calm,-,N/A,,Clear,0,2012-11-14 10:15:00
4:35 AM,32.9,28.6,84,30.28,10.0,Calm,Calm,-,N/A,,Clear,0,2012-11-14 10:35:00
4:55 AM,32.0,28.4,87,30.28,10.0,SE,3.5,-,N/A,,Clear,130,2012-11-14 10:55:00
5:15 AM,30.6,27.9,90,30.28,10.0,SE,4.6,-,N/A,,Clear,140,2012-11-14 11:15:00
5:35 AM,32.5,28.4,85,30.28,10.0,SE,3.5,-,N/A,,Clear,140,2012-11-14 11:35:00
5:55 AM,31.8,28.0,86,30.28,10.0,Calm,Calm,-,N/A,,Clear,0,2012-11-14 11:55:00
6:15 AM,31.8,27.9,85,30.27,10.0,Calm,Calm,-,N/A,,Clear,0,2012-11-14 12:15:00
6:35 AM,28.8,24.8,85,30.28,10.0,Calm,Calm,-,N/A,,Clear,0,2012-11-14 12:35:00
6:55 AM,29.5,26.2,88,30.29,10.0,Calm,Calm,-,N/A,,Clear,0,2012-11-14 12:55:00
7:15 AM,28.9,27.5,94,30.29,10.0,Calm,Calm,-,N/A,,Clear,0,2012-11-14 13:15:00
7:35 AM,33.4,28.4,82,30.29,10.0,Calm,Calm,-,N/A,,Clear,0,2012-11-14 13:35:00
7:55 AM,34.0,28.4,80,30.30,10.0,Calm,Calm,-,N/A,,Clear,0,2012-11-14 13:55:00
8:15 AM,34.7,29.3,81,30.30,10.0,SSW,5.8,-,N/A,,Clear,210,2012-11-14 14:15:00
8:35 AM,36.1,29.5,77,30.29,10.0,SSW,5.8,-,N/A,,Clear,200,2012-11-14 14:35:00
8:55 AM,37.6,29.7,73,30.30,10.0,SSW,8.1,-,N/A,,Clear,200,2012-11-14 14:55:00
9:15 AM,39.0,29.7,69,30.30,10.0,SSW,10.4,-,N/A,,Clear,200,2012-11-14 15:15:00
9:35 AM,39.6,29.7,68,30.30,10.0,SSW,9.2,-,N/A,,Clear,210,2012-11-14 15:35:00
9:55 AM,40.8,30.4,66,30.30,10.0,SW,10.4,-,N/A,,Clear,220,2012-11-14 15:55:00
10:15 AM,42.8,31.1,63,30.30,10.0,SSW,6.9,-,N/A,,Clear,210,2012-11-14 16:15:00
10:35 AM,43.7,31.1,61,30.30,10.0,SSW,6.9,-,N/A,,Clear,210,2012-11-14 16:35:00
10:55 AM,45.7,31.1,57,30.29,10.0,SSW,9.2,-,N/A,,Clear,210,2012-11-14 16:55:00
11:15 AM,47.5,31.1,53,30.28,10.0,SSW,9.2,-,N/A,,Clear,210,2012-11-14 17:15:00
11:35 AM,49.3,31.3,50,30.27,10.0,SSW,8.1,-,N/A,,Clear,200,2012-11-14 17:35:00
11:55 AM,50.9,30.4,45,30.26,10.0,SSW,8.1,-,N/A,,Clear,200,2012-11-14 17:55:00
12:15 PM,52.2,29.8,42,30.25,10.0,South,9.2,-,N/A,,Clear,190,2012-11-14 18:15:00
12:35 PM,54.0,29.8,40,30.24,10.0,SSW,8.1,-,N/A,,Clear,210,2012-11-14 18:35:00
12:55 PM,54.7,28.6,37,30.23,10.0,SSW,9.2,-,N/A,,Clear,210,2012-11-14 18:55:00
1:15 PM,56.7,29.7,36,30.22,10.0,SSW,9.2,-,N/A,,Clear,200,2012-11-14 19:15:00
1:35 PM,57.2,28.6,34,30.21,10.0,SSW,10.4,-,N/A,,Clear,210,2012-11-14 19:35:00
1:55 PM,57.2,27.7,32,30.21,10.0,South,9.2,16.1,N/A,,Clear,190,2012-11-14 19:55:00
2:15 PM,57.6,28.4,33,30.20,10.0,South,10.4,-,N/A,,Clear,190,2012-11-14 20:15:00
2:35 PM,57.2,28.0,33,30.19,10.0,South,6.9,-,N/A,,Clear,190,2012-11-14 20:35:00
2:55 PM,57.7,28.2,32,30.19,10.0,SSW,11.5,-,N/A,,Clear,210,2012-11-14 20:55:00
3:15 PM,57.6,28.2,33,30.19,10.0,South,8.1,-,N/A,,Clear,190,2012-11-14 21:15:00
3:35 PM,57.2,27.1,32,30.19,10.0,SSW,8.1,-,N/A,,Clear,200,2012-11-14 21:35:00
3:55 PM,57.4,26.6,31,30.19,10.0,South,9.2,-,N/A,,Clear,180,2012-11-14 21:55:00
4:15 PM,55.8,26.4,32,30.18,10.0,South,8.1,-,N/A,,Clear,180,2012-11-14 22:15:00
4:35 PM,54.9,26.8,34,30.18,10.0,South,9.2,-,N/A,,Clear,170,2012-11-14 22:35:00
4:55 PM,53.4,26.6,36,30.17,10.0,South,6.9,-,N/A,,Clear,170,2012-11-14 22:55:00
5:15 PM,52.0,26.4,37,30.17,10.0,SSE,8.1,-,N/A,,Clear,160,2012-11-14 23:15:00
5:35 PM,50.0,26.8,41,30.16,10.0,SSE,6.9,-,N/A,,Clear,150,2012-11-14 23:35:00
5:55 PM,49.3,27.1,42,30.17,10.0,SSE,5.8,-,N/A,,Clear,160,2012-11-14 23:55:00
6:15 PM,49.3,26.2,41,30.17,10.0,SSE,8.1,-,N/A,,Clear,150,2012-11-15 00:15:00
6:35 PM,49.6,25.3,39,30.17,10.0,SSE,10.4,-,N/A,,Clear,160,2012-11-15 00:35:00
6:55 PM,49.6,25.5,39,30.17,10.0,South,10.4,-,N/A,,Clear,170,2012-11-15 00:55:00
7:15 PM,50.4,25.7,38,30.18,10.0,South,11.5,-,N/A,,Clear,180,2012-11-15 01:15:00
7:35 PM,50.2,25.7,39,30.18,10.0,South,11.5,-,N/A,,Clear,170,2012-11-15 01:35:00
7:55 PM,50.4,25.9,39,30.17,10.0,South,11.5,-,N/A,,Clear,170,2012-11-15 01:55:00
8:35 PM,49.1,27.5,43,30.17,10.0,SSE,9.2,-,N/A,,Clear,160,2012-11-15 02:35:00
8:55 PM,48.4,27.5,44,30.18,10.0,SSE,9.2,-,N/A,,Clear,160,2012-11-15 02:55:00
9:15 PM,47.5,28.2,47,30.18,10.0,SSE,9.2,-,N/A,,Clear,160,2012-11-15 03:15:00
9:35 PM,47.3,28.4,48,30.19,10.0,SSE,10.4,-,N/A,,Clear,160,2012-11-15 03:35:00
9:55 PM,46.8,28.8,50,30.18,10.0,SSE,10.4,-,N/A,,Clear,160,2012-11-15 03:55:00
10:15 PM,46.9,29.1,50,30.18,10.0,SSE,10.4,-,N/A,,Scattered Clouds,160,2012-11-15 04:15:00
10:35 PM,46.6,29.1,51,30.18,10.0,South,9.2,-,N/A,,Scattered Clouds,170,2012-11-15 04:35:00
10:55 PM,46.0,29.3,52,30.18,10.0,South,8.1,-,N/A,,Scattered Clouds,170,2012-11-15 04:55:00
11:15 PM,46.0,29.3,52,30.17,10.0,South,10.4,-,N/A,,Overcast,170,2012-11-15 05:15:00
11:35 PM,46.0,29.5,52,30.17,10.0,South,9.2,-,N/A,,Scattered Clouds,170,2012-11-15 05:35:00
11:55 PM,45.9,29.5,53,30.18,10.0,South,9.2,-,N/A,,Scattered Clouds,170,2012-11-15 05:55:00